Time,TemperatureF,DewpointF,PressureIn,WindDirection,WindDirectionDegrees,WindSpeedMPH,WindSpeedGustMPH,Humidity,HourlyPrecipIn,Conditions,Clouds,dailyrainin,SoftwareType,DateUTC
2013-04-08 00:00:00,32.1,29.3,29.81,ENE,68,0.0,1.4,89,0.00,,,0.00,WUHU216HW,2013-04-08 05:00:00,
2013-04-08 00:05:00,32.1,29.3,29.81,ENE,68,0.0,0.8,89,0.00,,,0.00,WUHU216HW,2013-04-08 05:05:00,
2013-04-08 00:10:00,32.1,29.3,29.81,ENE,68,0.0,0.0,89,0.00,,,0.00,WUHU216HW,2013-04-08 05:10:00,
2013-04-08 00:15:00,32.1,29.3,29.81,ENE,68,0.0,0.0,89,0.00,,,0.00,WUHU216HW,2013-04-08 05:15:00,
2013-04-08 00:20:00,32.1,29.3,29.81,ENE,68,0.0,0.0,89,0.00,,,0.00,WUHU216HW,2013-04-08 05:20:00,
2013-04-08 00:25:00,32.1,29.3,29.81,ENE,68,0.8,0.8,89,0.00,,,0.00,WUHU216HW,2013-04-08 05:25:00,
2013-04-08 00:30:00,32.1,29.3,29.80,ENE,68,0.0,0.8,89,0.00,,,0.00,WUHU216HW,2013-04-08 05:30:00,
2013-04-08 00:35:00,32.1,29.3,29.80,ENE,68,0.0,2.1,89,0.00,,,0.00,WUHU216HW,2013-04-08 05:35:00,
2013-04-08 00:40:00,32.0,29.1,29.80,NE,45,0.0,2.1,89,0.00,,,0.00,WUHU216HW,2013-04-08 05:40:00,
2013-04-08 00:45:00,32.0,29.1,29.80,NE,45,0.0,0.0,89,0.00,,,0.00,WUHU216HW,2013-04-08 05:45:00,
2013-04-08 00:50:00,31.8,28.7,29.80,ENE,68,2.1,2.1,88,0.00,,,0.00,WUHU216HW,2013-04-08 05:50:00,
2013-04-08 00:55:00,31.8,28.7,29.80,ENE,68,2.1,2.1,88,0.00,,,0.00,WUHU216HW,2013-04-08 05:55:00,
2013-04-08 01:00:00,31.8,28.7,29.79,NE,45,0.0,2.1,88,0.00,,,0.00,WUHU216HW,2013-04-08 06:00:00,
2013-04-08 01:05:00,31.8,28.7,29.79,NE,45,0.0,0.0,88,0.00,,,0.00,WUHU216HW,2013-04-08 06:05:00,
2013-04-08 01:10:00,31.8,28.7,29.79,NE,45,0.0,0.0,88,0.00,,,0.00,WUHU216HW,2013-04-08 06:10:00,
2013-04-08 01:15:00,31.8,28.7,29.80,NNE,23,7.8,7.8,88,0.00,,,0.00,WUHU216HW,2013-04-08 06:15:00,
2013-04-08 01:20:00,31.8,28.7,29.79,NNE,23,10.9,10.9,88,0.00,,,0.00,WUHU216HW,2013-04-08 06:20:00,
2013-04-08 01:25:00,31.8,28.7,29.79,NNE,23,5.6,10.9,88,0.00,,,0.00,WUHU216HW,2013-04-08 06:25:00,
2013-04-08 01:30:00,31.8,28.7,29.79,NNE,23,6.6,7.3,88,0.00,,,0.00,WUHU216HW,2013-04-08 06:30:00,
2013-04-08 01:35:00,31.8,28.7,29.80,NNE,23,1.0,6.6,88,0.00,,,0.00,WUHU216HW,2013-04-08 06:35:00,
2013-04-08 01:40:00,31.8,28.7,29.80,NNE,23,3.9,6.6,88,0.00,,,0.00,WUHU216HW,2013-04-08 06:40:00,
2013-04-08 01:45:00,31.8,28.7,29.80,NNE,23,0.0,8.4,88,0.00,,,0.00,WUHU216HW,2013-04-08 06:45:00,
2013-04-08 01:50:00,31.8,28.7,29.80,NNE,23,3.0,8.4,88,0.00,,,0.00,WUHU216HW,2013-04-08 06:50:00,
2013-04-08 01:55:00,31.8,28.7,29.80,NE,45,1.6,3.0,88,0.00,,,0.00,WUHU216HW,2013-04-08 06:55:00,
2013-04-08 02:00:00,31.8,28.7,29.80,NE,45,0.0,1.6,88,0.00,,,0.00,WUHU216HW,2013-04-08 07:00:00,
2013-04-08 02:05:00,31.8,28.7,29.80,NE,45,0.0,1.6,88,0.00,,,0.00,WUHU216HW,2013-04-08 07:05:00,
2013-04-08 02:10:00,31.8,28.7,29.80,NE,45,0.0,0.0,88,0.00,,,0.00,WUHU216HW,2013-04-08 07:10:00,
2013-04-08 02:15:00,31.8,28.7,29.80,NE,45,0.0,0.0,88,0.00,,,0.00,WUHU216HW,2013-04-08 07:15:00,
2013-04-08 02:20:00,31.8,28.7,29.80,NNE,23,2.8,2.8,88,0.00,,,0.00,WUHU216HW,2013-04-08 07:20:00,
2013-04-08 02:25:00,31.8,28.7,29.80,NE,45,2.8,2.8,88,0.00,,,0.00,WUHU216HW,2013-04-08 07:25:00,
2013-04-08 02:30:00,31.8,28.7,29.80,NNE,23,0.0,2.8,88,0.00,,,0.00,WUHU216HW,2013-04-08 07:30:00,
2013-04-08 02:35:00,31.8,28.7,29.80,NNE,23,6.6,6.6,88,0.00,,,0.00,WUHU216HW,2013-04-08 07:35:00,
2013-04-08 02:40:00,31.6,28.5,29.81,NNE,23,7.3,7.3,88,0.00,,,0.00,WUHU216HW,2013-04-08 07:40:00,
2013-04-08 02:46:00,31.6,28.5,29.81,NNE,23,7.5,7.5,88,0.00,,,0.00,WUHU216HW,2013-04-08 07:46:00,
2013-04-08 02:51:00,31.6,28.5,29.81,NNE,23,7.3,7.5,88,0.00,,,0.00,WUHU216HW,2013-04-08 07:51:00,
2013-04-08 02:56:00,31.4,28.6,29.81,NNE,23,6.8,7.5,89,0.00,,,0.00,WUHU216HW,2013-04-08 07:56:00,
2013-04-08 03:01:00,31.2,28.4,29.80,NNE,23,8.0,8.0,89,0.00,,,0.00,WUHU216HW,2013-04-08 08:01:00,
2013-04-08 03:06:00,31.2,28.4,29.80,NNE,23,13.6,13.6,89,0.00,,,0.00,WUHU216HW,2013-04-08 08:06:00,
2013-04-08 03:11:00,31.2,28.4,29.81,NNE,23,9.9,13.6,89,0.00,,,0.00,WUHU216HW,2013-04-08 08:11:00,
2013-04-08 03:16:00,31.2,28.4,29.81,NNE,23,8.4,13.4,89,0.00,,,0.00,WUHU216HW,2013-04-08 08:16:00,
2013-04-08 03:21:00,31.2,28.4,29.81,NNE,23,8.9,8.9,89,0.00,,,0.00,WUHU216HW,2013-04-08 08:21:00,
2013-04-08 03:26:00,31.2,28.4,29.81,NNE,23,6.6,10.3,89,0.00,,,0.00,WUHU216HW,2013-04-08 08:26:00,
2013-04-08 03:31:00,31.2,28.4,29.81,NNE,23,8.0,10.3,89,0.00,,,0.00,WUHU216HW,2013-04-08 08:31:00,
2013-04-08 03:36:00,31.2,28.4,29.81,NNE,23,7.3,8.0,89,0.00,,,0.00,WUHU216HW,2013-04-08 08:36:00,
2013-04-08 03:41:00,31.2,28.4,29.81,NNE,23,7.8,8.0,89,0.00,,,0.00,WUHU216HW,2013-04-08 08:41:00,
2013-04-08 03:46:00,31.2,28.4,29.82,NNE,23,12.0,12.0,89,0.00,,,0.00,WUHU216HW,2013-04-08 08:46:00,
2013-04-08 03:51:00,31.2,28.4,29.82,NNE,23,6.4,15.6,89,0.00,,,0.00,WUHU216HW,2013-04-08 08:51:00,
2013-04-08 03:57:00,31.2,28.4,29.82,NNE,23,0.0,15.6,89,0.00,,,0.00,WUHU216HW,2013-04-08 08:57:00,
2013-04-08 04:02:00,31.2,28.4,29.82,NNE,23,0.0,0.0,89,0.00,,,0.00,WUHU216HW,2013-04-08 09:02:00,
2013-04-08 04:07:00,31.2,28.4,29.81,NNE,23,0.0,0.0,89,0.00,,,0.00,WUHU216HW,2013-04-08 09:07:00,
2013-04-08 04:12:00,31.1,28.2,29.81,NNE,23,0.0,0.0,89,0.00,,,0.00,WUHU216HW,2013-04-08 09:12:00,
2013-04-08 04:17:00,31.1,28.2,29.81,NNE,23,0.0,0.0,89,0.00,,,0.00,WUHU216HW,2013-04-08 09:17:00,
2013-04-08 04:22:00,31.1,28.2,29.81,NNE,23,0.0,0.0,89,0.00,,,0.00,WUHU216HW,2013-04-08 09:22:00,
2013-04-08 04:27:00,31.1,28.2,29.81,NNE,23,0.0,0.0,89,0.00,,,0.00,WUHU216HW,2013-04-08 09:27:00,
2013-04-08 04:32:00,31.1,28.2,29.81,NNE,23,0.0,0.0,89,0.00,,,0.00,WUHU216HW,2013-04-08 09:32:00,
2013-04-08 04:37:00,31.1,28.2,29.81,NNE,23,0.0,0.0,89,0.00,,,0.00,WUHU216HW,2013-04-08 09:37:00,
2013-04-08 04:42:00,31.1,28.2,29.82,NNE,23,0.0,0.0,89,0.00,,,0.00,WUHU216HW,2013-04-08 09:42:00,
2013-04-08 04:47:00,31.1,28.2,29.82,NNE,23,0.0,0.0,89,0.00,,,0.00,WUHU216HW,2013-04-08 09:47:00,
2013-04-08 04:52:00,31.1,28.2,29.82,NNE,23,0.0,0.0,89,0.00,,,0.00,WUHU216HW,2013-04-08 09:52:00,
2013-04-08 04:57:00,31.1,28.2,29.81,NNE,23,0.0,0.0,89,0.00,,,0.00,WUHU216HW,2013-04-08 09:57:00,
2013-04-08 05:02:00,31.1,28.2,29.81,NNE,23,0.0,0.0,89,0.00,,,0.00,WUHU216HW,2013-04-08 10:02:00,
2013-04-08 05:07:00,31.1,28.2,29.81,NNE,23,0.0,0.0,89,0.00,,,0.00,WUHU216HW,2013-04-08 10:07:00,
2013-04-08 05:12:00,31.1,28.2,29.81,NNE,23,0.0,0.0,89,0.00,,,0.00,WUHU216HW,2013-04-08 10:12:00,
2013-04-08 05:17:00,31.1,28.2,29.81,NNE,23,0.0,0.0,89,0.00,,,0.00,WUHU216HW,2013-04-08 10:17:00,
2013-04-08 05:22:00,31.1,28.2,29.81,NNE,23,0.0,0.0,89,0.00,,,0.00,WUHU216HW,2013-04-08 10:22:00,
2013-04-08 05:27:00,31.1,28.2,29.81,NNE,23,0.0,0.0,89,0.00,,,0.00,WUHU216HW,2013-04-08 10:27:00,
2013-04-08 05:32:00,31.1,28.2,29.81,NNE,23,0.0,0.0,89,0.00,,,0.00,WUHU216HW,2013-04-08 10:32:00,
2013-04-08 05:37:00,31.1,28.2,29.81,NNE,23,0.0,0.0,89,0.00,,,0.00,WUHU216HW,2013-04-08 10:37:00,
2013-04-08 05:42:00,31.1,28.2,29.81,NNE,23,0.0,0.0,89,0.00,,,0.00,WUHU216HW,2013-04-08 10:42:00,
2013-04-08 05:47:00,31.1,28.2,29.82,NNE,23,0.0,0.0,89,0.00,,,0.00,WUHU216HW,2013-04-08 10:47:00,
2013-04-08 05:52:00,31.1,28.2,29.82,NNE,23,0.0,0.0,89,0.00,,,0.00,WUHU216HW,2013-04-08 10:52:00,
2013-04-08 05:57:00,31.1,28.2,29.81,NNE,23,0.0,0.0,89,0.00,,,0.00,WUHU216HW,2013-04-08 10:57:00,
2013-04-08 06:02:00,31.1,28.2,29.81,NNE,23,0.0,0.0,89,0.00,,,0.00,WUHU216HW,2013-04-08 11:02:00,
2013-04-08 06:07:00,31.1,28.2,29.81,NNE,23,0.0,0.0,89,0.00,,,0.00,WUHU216HW,2013-04-08 11:07:00,
2013-04-08 06:12:00,31.1,28.2,29.81,NNE,23,0.0,0.0,89,0.00,,,0.00,WUHU216HW,2013-04-08 11:12:00,
2013-04-08 06:17:00,31.1,28.2,29.81,NNE,23,0.0,0.0,89,0.00,,,0.00,WUHU216HW,2013-04-08 11:17:00,
2013-04-08 06:22:00,31.1,28.2,29.81,NNE,23,0.0,0.0,89,0.00,,,0.00,WUHU216HW,2013-04-08 11:22:00,
2013-04-08 06:27:00,31.1,28.2,29.81,NNE,23,0.0,0.0,89,0.00,,,0.00,WUHU216HW,2013-04-08 11:27:00,
2013-04-08 06:32:00,30.9,28.1,29.82,NNE,23,0.0,0.0,89,0.00,,,0.00,WUHU216HW,2013-04-08 11:32:00,
2013-04-08 06:37:00,30.9,28.1,29.82,NNE,23,0.0,0.0,89,0.00,,,0.00,WUHU216HW,2013-04-08 11:37:00,
2013-04-08 06:42:00,31.1,28.2,29.82,NNE,23,0.0,0.0,89,0.00,,,0.00,WUHU216HW,2013-04-08 11:42:00,
2013-04-08 06:47:00,31.1,28.2,29.82,NNE,23,0.0,0.0,89,0.00,,,0.00,WUHU216HW,2013-04-08 11:47:00,
2013-04-08 06:52:00,31.1,28.2,29.82,NNE,23,0.0,0.0,89,0.00,,,0.00,WUHU216HW,2013-04-08 11:52:00,
2013-04-08 06:57:00,31.1,28.2,29.83,NNE,23,0.0,0.0,89,0.00,,,0.00,WUHU216HW,2013-04-08 11:57:00,
2013-04-08 07:03:00,30.9,28.1,29.83,NNE,23,0.0,0.0,89,0.00,,,0.00,WUHU216HW,2013-04-08 12:03:00,
2013-04-08 07:08:00,30.9,28.1,29.83,NNE,23,0.0,0.0,89,0.00,,,0.00,WUHU216HW,2013-04-08 12:08:00,
2013-04-08 07:13:00,30.9,28.1,29.83,NNE,23,0.0,0.0,89,0.00,,,0.00,WUHU216HW,2013-04-08 12:13:00,
2013-04-08 07:18:00,30.9,28.1,29.83,NNE,23,0.0,0.0,89,0.00,,,0.00,WUHU216HW,2013-04-08 12:18:00,
2013-04-08 07:23:00,30.9,28.1,29.83,NNE,23,0.0,0.0,89,0.00,,,0.00,WUHU216HW,2013-04-08 12:23:00,
2013-04-08 07:28:00,30.7,27.9,29.83,NNE,23,0.0,0.0,89,0.00,,,0.00,WUHU216HW,2013-04-08 12:28:00,
2013-04-08 07:33:00,30.7,27.9,29.83,NNE,23,0.0,0.0,89,0.00,,,0.00,WUHU216HW,2013-04-08 12:33:00,
2013-04-08 07:38:00,30.9,28.1,29.84,NNE,23,0.0,0.0,89,0.00,,,0.00,WUHU216HW,2013-04-08 12:38:00,
2013-04-08 07:43:00,30.9,28.1,29.84,NNE,23,0.0,0.0,89,0.00,,,0.00,WUHU216HW,2013-04-08 12:43:00,
2013-04-08 07:48:00,30.9,28.1,29.84,NNE,23,0.0,0.0,89,0.00,,,0.00,WUHU216HW,2013-04-08 12:48:00,
2013-04-08 07:53:00,31.1,28.2,29.84,NNE,23,0.0,0.0,89,0.00,,,0.00,WUHU216HW,2013-04-08 12:53:00,
2013-04-08 07:58:00,31.1,28.5,29.84,NNE,23,0.0,0.0,90,0.00,,,0.00,WUHU216HW,2013-04-08 12:58:00,
2013-04-08 08:03:00,30.9,28.1,29.84,NNE,23,0.0,0.0,89,0.00,,,0.00,WUHU216HW,2013-04-08 13:03:00,
2013-04-08 08:08:00,30.9,28.4,29.85,NNE,23,0.0,0.0,90,0.00,,,0.00,WUHU216HW,2013-04-08 13:08:00,
2013-04-08 08:13:00,30.9,28.4,29.85,NNE,23,0.0,0.0,90,0.00,,,0.00,WUHU216HW,2013-04-08 13:13:00,
2013-04-08 08:18:00,31.1,28.2,29.85,NNE,23,0.0,0.0,89,0.00,,,0.00,WUHU216HW,2013-04-08 13:18:00,
2013-04-08 08:23:00,31.1,28.5,29.85,NNE,23,0.0,0.0,90,0.00,,,0.00,WUHU216HW,2013-04-08 13:23:00,
2013-04-08 08:28:00,31.1,28.5,29.86,NNE,23,0.0,0.0,90,0.00,,,0.00,WUHU216HW,2013-04-08 13:28:00,
2013-04-08 08:33:00,31.1,28.5,29.86,NNE,23,0.0,0.0,90,0.00,,,0.00,WUHU216HW,2013-04-08 13:33:00,
2013-04-08 08:38:00,31.2,28.7,29.86,NNE,23,0.0,0.0,90,0.00,,,0.00,WUHU216HW,2013-04-08 13:38:00,
2013-04-08 08:43:00,31.1,28.5,29.86,NNE,23,0.0,0.0,90,0.00,,,0.00,WUHU216HW,2013-04-08 13:43:00,
2013-04-08 08:48:00,31.2,28.7,29.86,NNE,23,0.0,0.0,90,0.00,,,0.00,WUHU216HW,2013-04-08 13:48:00,
2013-04-08 08:53:00,31.2,28.7,29.86,NNE,23,0.0,0.0,90,0.00,,,0.00,WUHU216HW,2013-04-08 13:53:00,
2013-04-08 08:58:00,31.2,28.7,29.86,NNE,23,0.0,0.0,90,0.00,,,0.00,WUHU216HW,2013-04-08 13:58:00,
2013-04-08 09:03:00,31.2,28.7,29.86,NNE,23,0.0,0.0,90,0.00,,,0.00,WUHU216HW,2013-04-08 14:03:00,
2013-04-08 09:08:00,31.1,28.5,29.86,NNE,23,0.0,0.0,90,0.00,,,0.00,WUHU216HW,2013-04-08 14:08:00,
2013-04-08 09:13:00,31.1,28.5,29.86,NNE,23,0.0,0.0,90,0.00,,,0.00,WUHU216HW,2013-04-08 14:13:00,
2013-04-08 09:18:00,31.1,28.5,29.86,NNE,23,0.0,0.0,90,0.00,,,0.00,WUHU216HW,2013-04-08 14:18:00,
2013-04-08 09:23:00,31.1,28.5,29.86,NNE,23,0.0,0.0,90,0.00,,,0.00,WUHU216HW,2013-04-08 14:23:00,
2013-04-08 09:28:00,31.1,28.5,29.86,NNE,23,0.0,0.0,90,0.00,,,0.00,WUHU216HW,2013-04-08 14:28:00,
2013-04-08 09:33:00,31.1,28.5,29.87,NNE,23,0.0,0.0,90,0.00,,,0.00,WUHU216HW,2013-04-08 14:33:00,
2013-04-08 09:38:00,31.2,28.7,29.86,NNE,23,0.0,0.0,90,0.00,,,0.00,WUHU216HW,2013-04-08 14:38:00,
2013-04-08 09:43:00,31.2,28.7,29.86,NNE,23,0.0,0.0,90,0.00,,,0.00,WUHU216HW,2013-04-08 14:43:00,
2013-04-08 09:48:00,31.6,29.1,29.86,NNE,23,0.0,0.0,90,0.00,,,0.00,WUHU216HW,2013-04-08 14:48:00,
2013-04-08 09:53:00,31.6,29.1,29.87,NNE,23,0.0,0.0,90,0.00,,,0.00,WUHU216HW,2013-04-08 14:53:00,
2013-04-08 09:58:00,31.6,28.8,29.87,NNE,23,0.0,0.0,89,0.00,,,0.00,WUHU216HW,2013-04-08 14:58:00,
2013-04-08 10:03:00,31.6,28.8,29.88,NNE,23,0.0,0.0,89,0.00,,,0.00,WUHU216HW,2013-04-08 15:03:00,
2013-04-08 10:08:00,31.6,28.8,29.88,NNE,23,0.0,0.0,89,0.00,,,0.00,WUHU216HW,2013-04-08 15:08:00,
2013-04-08 10:13:00,31.6,28.8,29.88,NNE,23,0.0,0.0,89,0.00,,,0.00,WUHU216HW,2013-04-08 15:13:00,
2013-04-08 10:18:00,31.2,28.4,29.88,NNE,23,0.0,0.0,89,0.00,,,0.00,WUHU216HW,2013-04-08 15:18:00,
2013-04-08 10:23:00,31.2,28.4,29.88,NNE,23,0.0,0.0,89,0.00,,,0.00,WUHU216HW,2013-04-08 15:23:00,
2013-04-08 10:28:00,31.2,28.4,29.88,NNE,23,0.0,0.0,89,0.00,,,0.00,WUHU216HW,2013-04-08 15:28:00,
2013-04-08 10:33:00,31.2,28.4,29.89,NNE,23,0.0,0.0,89,0.00,,,0.00,WUHU216HW,2013-04-08 15:33:00,
2013-04-08 10:38:00,31.2,28.4,29.89,NNE,23,0.0,0.0,89,0.00,,,0.00,WUHU216HW,2013-04-08 15:38:00,
2013-04-08 10:43:00,31.2,28.4,29.89,NNE,23,0.0,0.0,89,0.00,,,0.00,WUHU216HW,2013-04-08 15:43:00,
2013-04-08 10:48:00,31.2,28.4,29.89,NNE,23,0.0,0.0,89,0.00,,,0.00,WUHU216HW,2013-04-08 15:48:00,
2013-04-08 10:53:00,31.2,28.4,29.90,NNE,23,0.0,0.0,89,0.00,,,0.00,WUHU216HW,2013-04-08 15:53:00,
2013-04-08 10:58:00,31.2,28.4,29.90,NNE,23,0.0,0.0,89,0.00,,,0.00,WUHU216HW,2013-04-08 15:58:00,
2013-04-08 11:03:00,31.2,28.4,29.90,NNE,23,0.0,0.0,89,0.00,,,0.00,WUHU216HW,2013-04-08 16:03:00,
2013-04-08 11:08:00,31.2,28.4,29.90,NNE,23,0.0,0.0,89,0.00,,,0.00,WUHU216HW,2013-04-08 16:08:00,
2013-04-08 11:13:00,31.2,28.4,29.90,NNE,23,0.0,0.0,89,0.00,,,0.00,WUHU216HW,2013-04-08 16:13:00,
2013-04-08 11:18:00,31.2,28.4,29.91,NNE,23,0.0,0.0,89,0.00,,,0.00,WUHU216HW,2013-04-08 16:18:00,
2013-04-08 11:24:00,31.2,28.4,29.91,NNE,23,0.0,0.0,89,0.00,,,0.00,WUHU216HW,2013-04-08 16:24:00,
2013-04-08 11:29:00,31.2,28.4,29.92,NNE,23,0.0,0.0,89,0.00,,,0.00,WUHU216HW,2013-04-08 16:29:00,
2013-04-08 11:34:00,31.1,28.2,29.92,NNE,23,0.0,0.0,89,0.00,,,0.00,WUHU216HW,2013-04-08 16:34:00,
2013-04-08 11:39:00,31.2,28.4,29.93,NNE,23,0.0,0.0,89,0.00,,,0.00,WUHU216HW,2013-04-08 16:39:00,
2013-04-08 11:44:00,30.9,28.1,29.93,NNE,23,0.0,0.0,89,0.00,,,0.00,WUHU216HW,2013-04-08 16:44:00,
2013-04-08 11:49:00,31.1,28.4,29.93,NNE,23,0.0,0.0,89,0.00,,,0.00,WUHU216HW,2013-04-08 16:49:00,
2013-04-08 11:54:00,31.2,28.4,29.93,NNE,23,0.0,0.0,89,0.00,,,0.00,WUHU216HW,2013-04-08 16:54:00,
2013-04-08 11:59:00,31.2,28.4,29.93,NNE,23,0.0,0.0,89,0.00,,,0.00,WUHU216HW,2013-04-08 16:59:00,
2013-04-08 12:04:00,31.1,28.2,29.93,NNE,23,0.0,0.0,89,0.00,,,0.00,WUHU216HW,2013-04-08 17:04:00,
2013-04-08 12:09:00,31.2,28.4,29.94,NNE,23,0.0,0.0,89,0.00,,,0.00,WUHU216HW,2013-04-08 17:09:00,
2013-04-08 12:14:00,31.2,28.4,29.94,NNE,23,0.0,0.0,89,0.00,,,0.00,WUHU216HW,2013-04-08 17:14:00,
2013-04-08 12:19:00,31.2,28.1,29.94,NNE,23,0.0,0.0,88,0.00,,,0.00,WUHU216HW,2013-04-08 17:19:00,
2013-04-08 12:24:00,31.2,28.1,29.95,NNE,23,0.0,0.0,88,0.00,,,0.00,WUHU216HW,2013-04-08 17:24:00,
2013-04-08 12:29:00,31.2,28.1,29.94,NNE,23,0.0,0.0,88,0.00,,,0.00,WUHU216HW,2013-04-08 17:29:00,
2013-04-08 12:35:00,31.2,28.1,29.94,NNE,23,0.0,0.0,88,0.00,,,0.00,WUHU216HW,2013-04-08 17:35:00,
2013-04-08 12:40:00,31.2,28.1,29.94,NNE,23,0.0,0.0,88,0.00,,,0.00,WUHU216HW,2013-04-08 17:40:00,
2013-04-08 12:45:00,31.2,28.1,29.94,NNE,23,0.0,0.0,88,0.00,,,0.00,WUHU216HW,2013-04-08 17:45:00,
2013-04-08 12:50:00,31.1,27.8,29.94,NNE,23,0.0,0.0,88,0.00,,,0.00,WUHU216HW,2013-04-08 17:50:00,
2013-04-08 12:55:00,31.1,28.0,29.94,NNE,23,0.0,0.0,88,0.00,,,0.00,WUHU216HW,2013-04-08 17:55:00,
2013-04-08 13:00:00,30.9,27.8,29.95,NNE,23,0.0,0.0,88,0.00,,,0.00,WUHU216HW,2013-04-08 18:00:00,
2013-04-08 13:05:00,30.9,27.6,29.96,NNE,23,0.0,0.0,88,0.00,,,0.00,WUHU216HW,2013-04-08 18:05:00,
2013-04-08 13:10:00,30.7,27.6,29.96,NNE,23,0.0,0.0,88,0.00,,,0.00,WUHU216HW,2013-04-08 18:10:00,
2013-04-08 13:15:00,30.7,27.6,29.96,NNE,23,0.0,0.0,88,0.00,,,0.00,WUHU216HW,2013-04-08 18:15:00,
2013-04-08 13:20:00,30.3,27.2,29.96,NNE,23,0.0,0.0,88,0.00,,,0.00,WUHU216HW,2013-04-08 18:20:00,
2013-04-08 13:25:00,30.5,27.4,29.96,NNE,23,0.0,0.0,88,0.00,,,0.00,WUHU216HW,2013-04-08 18:25:00,
2013-04-08 13:30:00,30.3,27.2,29.96,NNE,23,0.0,0.0,88,0.00,,,0.00,WUHU216HW,2013-04-08 18:30:00,
2013-04-08 13:35:00,30.3,27.2,29.96,NNE,23,0.0,0.0,88,0.00,,,0.00,WUHU216HW,2013-04-08 18:35:00,
2013-04-08 13:40:00,30.5,27.4,29.96,NNE,23,0.0,0.0,88,0.00,,,0.00,WUHU216HW,2013-04-08 18:40:00,
2013-04-08 13:45:00,30.5,27.4,29.96,NNE,23,0.0,0.0,88,0.00,,,0.00,WUHU216HW,2013-04-08 18:45:00,
2013-04-08 13:50:00,30.3,27.2,29.96,NNE,23,0.0,0.0,88,0.00,,,0.00,WUHU216HW,2013-04-08 18:50:00,
2013-04-08 13:55:00,30.3,27.2,29.96,NNE,23,0.0,0.0,88,0.00,,,0.00,WUHU216HW,2013-04-08 18:55:00,
2013-04-08 14:00:00,30.3,27.2,29.96,NNE,23,0.0,0.0,88,0.00,,,0.00,WUHU216HW,2013-04-08 19:00:00,
2013-04-08 14:05:00,30.0,26.9,29.97,NNE,23,0.0,0.0,88,0.00,,,0.00,WUHU216HW,2013-04-08 19:05:00,
2013-04-08 14:10:00,29.8,26.7,29.97,NNE,23,0.0,0.0,88,0.00,,,0.00,WUHU216HW,2013-04-08 19:10:00,
2013-04-08 14:15:00,29.6,26.5,29.96,NNE,23,0.0,0.0,88,0.00,,,0.00,WUHU216HW,2013-04-08 19:15:00,
2013-04-08 14:20:00,29.4,26.3,29.97,NNE,23,0.0,0.0,88,0.00,,,0.00,WUHU216HW,2013-04-08 19:20:00,
2013-04-08 14:25:00,29.3,26.2,29.98,NNE,23,0.0,0.0,88,0.00,,,0.00,WUHU216HW,2013-04-08 19:25:00,
2013-04-08 14:30:00,28.9,25.8,29.98,NNE,23,0.0,0.0,88,0.02,,,0.02,WUHU216HW,2013-04-08 19:30:00,
2013-04-08 14:35:00,28.5,25.1,29.98,NNE,23,0.0,0.0,87,0.02,,,0.02,WUHU216HW,2013-04-08 19:35:00,
2013-04-08 14:40:00,28.2,24.8,29.98,NNE,23,0.0,0.0,87,0.02,,,0.02,WUHU216HW,2013-04-08 19:40:00,
2013-04-08 14:45:00,28.2,24.8,29.99,NNE,23,0.0,0.0,87,0.02,,,0.02,WUHU216HW,2013-04-08 19:45:00,
2013-04-08 14:50:00,28.0,24.6,29.99,NNE,23,0.0,0.0,87,0.02,,,0.02,WUHU216HW,2013-04-08 19:50:00,
2013-04-08 14:56:00,27.6,24.5,29.99,NNE,23,0.0,0.0,88,0.02,,,0.02,WUHU216HW,2013-04-08 19:56:00,
2013-04-08 15:01:00,27.6,24.5,29.99,NNE,23,0.0,0.0,88,0.02,,,0.02,WUHU216HW,2013-04-08 20:01:00,
2013-04-08 15:06:00,27.6,24.5,30.00,NNE,23,0.0,0.0,88,0.02,,,0.02,WUHU216HW,2013-04-08 20:06:00,
2013-04-08 15:11:00,27.6,24.5,30.00,NNE,23,0.0,0.0,88,0.02,,,0.02,WUHU216HW,2013-04-08 20:11:00,
2013-04-08 15:16:00,27.6,24.5,30.00,NNE,23,0.0,0.0,88,0.02,,,0.02,WUHU216HW,2013-04-08 20:16:00,
2013-04-08 15:21:00,27.5,24.4,30.00,NNE,23,0.0,0.0,88,0.02,,,0.02,WUHU216HW,2013-04-08 20:21:00,
2013-04-08 15:26:00,27.5,24.1,30.00,NNE,23,0.0,0.0,87,0.02,,,0.02,WUHU216HW,2013-04-08 20:26:00,
2013-04-08 15:31:00,27.3,23.9,30.01,NNE,23,0.0,0.0,87,0.00,,,0.02,WUHU216HW,2013-04-08 20:31:00,
2013-04-08 15:36:00,27.5,24.1,30.01,NNE,23,0.0,0.0,87,0.00,,,0.02,WUHU216HW,2013-04-08 20:36:00,
2013-04-08 15:41:00,27.3,23.9,30.02,NNE,23,0.0,0.0,87,0.00,,,0.02,WUHU216HW,2013-04-08 20:41:00,
2013-04-08 15:46:00,27.1,23.7,30.02,NNE,23,0.0,0.0,87,0.00,,,0.02,WUHU216HW,2013-04-08 20:46:00,
2013-04-08 15:52:00,27.1,23.7,30.02,NNE,23,0.0,0.0,87,0.00,,,0.02,WUHU216HW,2013-04-08 20:52:00,
2013-04-08 15:57:00,27.1,23.7,30.02,NNE,23,0.0,0.0,87,0.00,,,0.02,WUHU216HW,2013-04-08 20:57:00,
2013-04-08 16:02:00,26.9,23.5,30.03,NNE,23,0.0,0.0,87,0.00,,,0.02,WUHU216HW,2013-04-08 21:02:00,
2013-04-08 16:07:00,26.9,23.3,30.03,NNE,23,0.0,0.0,87,0.00,,,0.02,WUHU216HW,2013-04-08 21:07:00,
2013-04-08 16:12:00,26.7,23.3,30.03,NNE,23,0.0,0.0,87,0.00,,,0.02,WUHU216HW,2013-04-08 21:12:00,
2013-04-08 16:17:00,26.9,23.5,30.03,South,180,0.0,0.0,87,0.00,,,0.02,WUHU216HW,2013-04-08 21:17:00,
2013-04-08 16:22:00,26.9,23.5,30.03,South,180,0.0,0.0,87,0.00,,,0.02,WUHU216HW,2013-04-08 21:22:00,
2013-04-08 16:27:00,26.9,23.5,30.03,South,180,0.0,0.0,87,0.00,,,0.02,WUHU216HW,2013-04-08 21:27:00,
2013-04-08 16:32:00,26.9,23.5,30.03,South,180,0.0,0.0,87,0.00,,,0.02,WUHU216HW,2013-04-08 21:32:00,
2013-04-08 16:55:00,27.1,23.4,30.05,NNE,23,0.0,0.0,86,0.00,,,0.02,WUHU216HW,2013-04-08 21:55:00,
2013-04-08 17:00:00,27.1,23.4,30.05,NNE,23,0.0,0.0,86,0.00,,,0.02,WUHU216HW,2013-04-08 22:00:00,
2013-04-08 17:05:00,26.9,23.2,30.05,NNE,23,0.0,0.0,86,0.00,,,0.02,WUHU216HW,2013-04-08 22:05:00,
2013-04-08 17:10:00,27.1,23.7,30.05,NNE,23,0.0,0.0,87,0.00,,,0.02,WUHU216HW,2013-04-08 22:10:00,
2013-04-08 17:15:00,26.7,23.1,30.05,NNE,23,0.0,0.0,86,0.00,,,0.02,WUHU216HW,2013-04-08 22:15:00,
2013-04-08 17:20:00,26.6,22.9,30.05,NNE,23,0.0,0.0,86,0.00,,,0.02,WUHU216HW,2013-04-08 22:20:00,
2013-04-08 17:25:00,26.4,22.7,30.06,NNE,23,0.0,0.0,86,0.00,,,0.02,WUHU216HW,2013-04-08 22:25:00,
2013-04-08 17:30:00,26.4,23.0,30.06,NNE,23,0.0,0.0,87,0.00,,,0.02,WUHU216HW,2013-04-08 22:30:00,
2013-04-08 17:35:00,26.4,23.0,30.06,NNE,23,0.0,0.0,87,0.00,,,0.02,WUHU216HW,2013-04-08 22:35:00,
2013-04-08 17:40:00,26.4,23.0,30.06,NNE,23,0.0,0.0,87,0.00,,,0.02,WUHU216HW,2013-04-08 22:40:00,
2013-04-08 17:45:00,26.2,22.5,30.06,NNE,23,0.0,0.0,86,0.00,,,0.02,WUHU216HW,2013-04-08 22:45:00,
2013-04-08 17:50:00,26.2,22.5,30.06,NNE,23,0.0,0.0,86,0.00,,,0.02,WUHU216HW,2013-04-08 22:50:00,
2013-04-08 17:55:00,25.8,22.2,30.06,NNE,23,0.0,0.0,86,0.00,,,0.02,WUHU216HW,2013-04-08 22:55:00,
2013-04-08 18:00:00,25.7,22.0,30.06,NNE,23,0.0,0.0,86,0.00,,,0.02,WUHU216HW,2013-04-08 23:00:00,
2013-04-08 18:05:00,25.5,21.8,30.06,NNE,23,0.0,0.0,86,0.00,,,0.02,WUHU216HW,2013-04-08 23:05:00,
2013-04-08 18:10:00,25.5,21.8,30.06,NNE,23,0.0,0.0,86,0.00,,,0.02,WUHU216HW,2013-04-08 23:10:00,
2013-04-08 18:15:00,25.5,21.8,30.07,NNE,23,0.0,0.0,86,0.00,,,0.02,WUHU216HW,2013-04-08 23:15:00,
2013-04-08 18:20:00,25.3,21.8,30.07,NNE,23,0.0,0.0,86,0.00,,,0.02,WUHU216HW,2013-04-08 23:20:00,
2013-04-08 18:25:00,25.1,21.5,30.07,NNE,23,0.0,0.0,86,0.00,,,0.02,WUHU216HW,2013-04-08 23:25:00,
2013-04-08 18:30:00,24.8,20.9,30.08,NNE,23,0.0,0.0,85,0.00,,,0.02,WUHU216HW,2013-04-08 23:30:00,
2013-04-08 18:35:00,24.6,20.7,30.08,NNE,23,0.0,0.0,85,0.00,,,0.02,WUHU216HW,2013-04-08 23:35:00,
2013-04-08 18:40:00,24.6,20.7,30.09,NNE,23,0.0,0.0,85,0.00,,,0.02,WUHU216HW,2013-04-08 23:40:00,
2013-04-08 18:45:00,24.4,20.5,30.09,NNE,23,0.0,0.0,85,0.00,,,0.02,WUHU216HW,2013-04-08 23:45:00,
2013-04-08 18:50:00,24.4,20.5,30.09,NNE,23,0.0,0.0,85,0.00,,,0.02,WUHU216HW,2013-04-08 23:50:00,
2013-04-08 18:55:00,24.0,20.2,30.09,NNE,23,0.0,0.0,85,0.00,,,0.02,WUHU216HW,2013-04-08 23:55:00,
2013-04-08 19:00:00,24.0,20.2,30.09,NNE,23,0.0,0.0,85,0.00,,,0.02,WUHU216HW,2013-04-09 00:00:00,
2013-04-08 19:05:00,23.9,20.0,30.09,NNE,23,0.0,0.0,85,0.00,,,0.02,WUHU216HW,2013-04-09 00:05:00,
2013-04-08 19:10:00,23.9,20.3,30.09,NNE,23,0.0,0.0,86,0.00,,,0.02,WUHU216HW,2013-04-09 00:10:00,
2013-04-08 19:15:00,23.9,20.3,30.09,NNE,23,0.0,0.0,86,0.00,,,0.02,WUHU216HW,2013-04-09 00:15:00,
2013-04-08 19:20:00,23.7,20.1,30.09,NNE,23,0.0,0.0,86,0.00,,,0.02,WUHU216HW,2013-04-09 00:20:00,
2013-04-08 19:25:00,23.5,19.9,30.09,NNE,23,0.0,0.0,86,0.00,,,0.02,WUHU216HW,2013-04-09 00:25:00,
2013-04-08 19:30:00,23.3,19.7,30.09,NNE,23,0.0,0.0,86,0.00,,,0.02,WUHU216HW,2013-04-09 00:30:00,
2013-04-08 19:35:00,23.1,19.5,30.09,NNE,23,0.0,0.0,86,0.00,,,0.02,WUHU216HW,2013-04-09 00:35:00,
2013-04-08 19:40:00,23.0,19.4,30.09,NNE,23,0.0,0.0,86,0.00,,,0.02,WUHU216HW,2013-04-09 00:40:00,
2013-04-08 19:45:00,22.8,19.2,30.10,NNE,23,0.0,0.0,86,0.00,,,0.02,WUHU216HW,2013-04-09 00:45:00,
2013-04-08 19:50:00,22.8,19.2,30.10,NNE,23,0.0,0.0,86,0.00,,,0.02,WUHU216HW,2013-04-09 00:50:00,
2013-04-08 19:55:00,22.6,19.0,30.10,NNE,23,0.0,0.0,86,0.00,,,0.02,WUHU216HW,2013-04-09 00:55:00,
2013-04-08 20:00:00,22.8,19.2,30.11,NNE,23,0.0,0.0,86,0.00,,,0.02,WUHU216HW,2013-04-09 01:00:00,
2013-04-08 20:05:00,22.6,19.0,30.11,NNE,23,0.0,0.0,86,0.00,,,0.02,WUHU216HW,2013-04-09 01:05:00,
2013-04-08 20:10:00,22.4,18.8,30.11,NNE,23,0.0,0.0,86,0.00,,,0.02,WUHU216HW,2013-04-09 01:10:00,
2013-04-08 20:15:00,22.2,18.6,30.11,NNE,23,0.0,0.0,86,0.00,,,0.02,WUHU216HW,2013-04-09 01:15:00,
2013-04-08 20:20:00,22.2,18.6,30.11,NNE,23,0.0,0.0,86,0.00,,,0.02,WUHU216HW,2013-04-09 01:20:00,
2013-04-08 20:25:00,22.2,18.6,30.12,NNE,23,0.0,0.0,86,0.00,,,0.02,WUHU216HW,2013-04-09 01:25:00,
2013-04-08 20:30:00,22.2,18.6,30.13,NNE,23,0.0,0.0,86,0.00,,,0.02,WUHU216HW,2013-04-09 01:30:00,
2013-04-08 20:36:00,22.2,18.6,30.13,NNE,23,0.0,0.0,86,0.00,,,0.02,WUHU216HW,2013-04-09 01:36:00,
2013-04-08 20:41:00,22.2,18.6,30.13,NNE,23,0.0,0.0,86,0.00,,,0.02,WUHU216HW,2013-04-09 01:41:00,
2013-04-08 20:46:00,22.2,18.6,30.13,NNE,23,0.0,0.0,86,0.00,,,0.02,WUHU216HW,2013-04-09 01:46:00,
2013-04-08 20:51:00,22.1,18.5,30.13,NNE,23,0.0,0.0,86,0.00,,,0.02,WUHU216HW,2013-04-09 01:51:00,
2013-04-08 20:56:00,21.9,18.3,30.14,NNE,23,0.0,0.0,86,0.00,,,0.02,WUHU216HW,2013-04-09 01:56:00,
2013-04-08 21:01:00,21.9,18.3,30.14,NNE,23,0.0,0.0,86,0.00,,,0.02,WUHU216HW,2013-04-09 02:01:00,
2013-04-08 21:07:00,21.9,18.3,30.15,NNE,23,0.0,0.0,86,0.00,,,0.02,WUHU216HW,2013-04-09 02:07:00,
2013-04-08 21:12:00,21.9,18.3,30.16,NNE,23,0.0,0.0,86,0.00,,,0.02,WUHU216HW,2013-04-09 02:12:00,
2013-04-08 21:17:00,21.7,18.1,30.15,NNE,23,0.0,0.0,86,0.00,,,0.02,WUHU216HW,2013-04-09 02:17:00,
2013-04-08 21:22:00,21.7,18.1,30.16,NNE,23,0.0,0.0,86,0.00,,,0.02,WUHU216HW,2013-04-09 02:22:00,
2013-04-08 21:27:00,21.5,17.9,30.16,NNE,23,0.0,0.0,86,0.00,,,0.02,WUHU216HW,2013-04-09 02:27:00,
2013-04-08 21:32:00,21.5,17.9,30.16,NNE,23,0.0,0.0,86,0.00,,,0.02,WUHU216HW,2013-04-09 02:32:00,
2013-04-08 21:37:00,21.3,17.5,30.18,NNE,23,0.0,0.0,85,0.00,,,0.02,WUHU216HW,2013-04-09 02:37:00,
2013-04-08 21:43:00,21.0,17.1,30.18,NNE,23,0.0,0.0,85,0.00,,,0.02,WUHU216HW,2013-04-09 02:43:00,
2013-04-08 21:48:00,21.0,17.1,30.18,NNE,23,0.0,0.0,85,0.00,,,0.02,WUHU216HW,2013-04-09 02:48:00,
2013-04-08 21:53:00,21.0,17.4,30.18,NNE,23,0.0,0.0,86,0.00,,,0.02,WUHU216HW,2013-04-09 02:53:00,
2013-04-08 21:58:00,20.8,16.9,30.18,NNE,23,0.0,0.0,85,0.00,,,0.02,WUHU216HW,2013-04-09 02:58:00,
2013-04-08 22:03:00,20.4,16.6,30.18,NNE,23,0.0,0.0,85,0.00,,,0.02,WUHU216HW,2013-04-09 03:03:00,
2013-04-08 22:08:00,20.3,16.4,30.18,NNE,23,0.0,0.0,85,0.00,,,0.02,WUHU216HW,2013-04-09 03:08:00,
2013-04-08 22:13:00,20.1,15.9,30.19,NNE,23,0.0,0.0,84,0.00,,,0.02,WUHU216HW,2013-04-09 03:13:00,
2013-04-08 22:18:00,19.9,15.8,30.20,NNE,23,0.0,0.0,84,0.00,,,0.02,WUHU216HW,2013-04-09 03:18:00,
2013-04-08 22:23:00,19.9,15.8,30.20,NNE,23,0.0,0.0,84,0.00,,,0.02,WUHU216HW,2013-04-09 03:23:00,
2013-04-08 22:28:00,19.9,15.8,30.19,NNE,23,0.0,0.0,84,0.00,,,0.02,WUHU216HW,2013-04-09 03:28:00,
2013-04-08 22:33:00,19.7,15.6,30.20,NNE,23,0.0,0.0,84,0.00,,,0.02,WUHU216HW,2013-04-09 03:33:00,
2013-04-08 22:38:00,19.5,15.4,30.20,NNE,23,0.0,0.0,84,0.00,,,0.02,WUHU216HW,2013-04-09 03:38:00,
2013-04-08 22:43:00,19.5,15.4,30.20,NNE,23,0.0,0.0,84,0.00,,,0.02,WUHU216HW,2013-04-09 03:43:00,
2013-04-08 22:48:00,19.5,15.1,30.21,NNE,23,0.0,0.0,83,0.00,,,0.02,WUHU216HW,2013-04-09 03:48:00,
2013-04-08 22:53:00,19.4,15.2,30.21,NNE,23,0.0,0.0,84,0.00,,,0.02,WUHU216HW,2013-04-09 03:53:00,
2013-04-08 22:58:00,19.2,14.8,30.21,NNE,23,0.0,0.0,83,0.00,,,0.02,WUHU216HW,2013-04-09 03:58:00,
2013-04-08 23:00:00,19.2,14.8,30.21,NNE,23,0.0,0.0,83,0.00,,,0.02,WUHU216HW,2013-04-09 04:00:00,
2013-04-08 23:05:00,19.0,14.6,30.21,NNE,23,0.0,0.0,83,0.00,,,0.02,WUHU216HW,2013-04-09 04:05:00,
2013-04-08 23:10:00,18.6,14.0,30.21,NNE,23,0.0,0.0,82,0.00,,,0.02,WUHU216HW,2013-04-09 04:10:00,
2013-04-08 23:15:00,18.6,14.0,30.21,NNE,23,0.0,0.0,82,0.00,,,0.02,WUHU216HW,2013-04-09 04:15:00,
2013-04-08 23:20:00,18.6,14.2,30.23,NNE,23,0.0,0.0,83,0.00,,,0.02,WUHU216HW,2013-04-09 04:20:00,
2013-04-08 23:25:00,18.5,14.0,30.22,NNE,23,0.0,0.0,83,0.00,,,0.02,WUHU216HW,2013-04-09 04:25:00,
2013-04-08 23:30:00,18.6,14.2,30.22,NNE,23,0.0,0.0,83,0.00,,,0.02,WUHU216HW,2013-04-09 04:30:00,
2013-04-08 23:35:00,18.5,14.0,30.22,NNE,23,0.0,0.0,83,0.00,,,0.02,WUHU216HW,2013-04-09 04:35:00,
2013-04-08 23:40:00,18.3,13.4,30.22,NNE,23,0.0,0.0,82,0.00,,,0.02,WUHU216HW,2013-04-09 04:40:00,
2013-04-08 23:45:00,17.9,13.2,30.22,NNE,23,0.0,0.0,82,0.00,,,0.02,WUHU216HW,2013-04-09 04:45:00,
2013-04-08 23:50:00,17.7,13.1,30.22,NNE,23,0.0,0.0,82,0.00,,,0.02,WUHU216HW,2013-04-09 04:50:00,
2013-04-08 23:55:00,17.7,12.8,30.22,NNE,23,0.0,0.0,81,0.00,,,0.02,WUHU216HW,2013-04-09 04:55:00,